Voltar ao catálogo

STARLINK-35981

AtivoComunicaçõesVLEO
NORAD 66598·PAYLOAD·🇺🇸 United States

Lançado Nov 22, 2025 de Cape Canaveral Space Force Station

Loading…

Próximas Passagens (próximas 24 horas)

TLE

AtualizadoSource: CelesTrak SupGP

Época: Sep 14, 2026, 21:15 UTC

1 66598C 25270L   26257.88590278  .00033318  00000+0  12069-2 0  2573
2 66598  43.0027  67.3517 0001681 280.1017 128.7175 15.27559405    11

Acompanhe STARLINK-35981 em tempo real com AllMySat

Download on the App Store